Wind_Speed
18 17 16 17 21 24 26 27 27 29 34 38 37 36 36 35 33 32 32 33 34 36 37 38 39 40 41 42 44 45 47 49 51 52 53 54 55 55 55 55 55 54 54 55
15 15 17 18 19 20 21 24 28 31 35 38 40 39 38 36 33 32 33 35 37 39 41 42 43 44 45 47 48 49 50 51 52 53 53 53 53 53 53 53 54 54 55 56
13 14 15 20 24 24 26 27 28 31 32 34 34 37 36 33 30 32 34 36 38 40 41 42 44 46 47 49 50 51 51 51 51 51 50 50 50 50 51 53 54 55 55 55
10 13 16 23 24 26 27 30 31 33 36 38 39 37 36 36 37 38 37 38 39 40 40 41 41 42 42 43 45 45 45 45 45 46 46 46 47 48 50 51 52 52 53 53
10 11 16 21 22 24 26 29 30 32 35 38 40 42 41 40 40 39 38 38 38 38 38 38 38 38 38 39 40 41 40 40 42 44 45 45 46 47 49 50 50 51 52 52
12 13 18 21 21 21 23 27 27 29 30 32 34 36 36 35 35 34 34 35 36 37 37 37 38 39 40 40 40 40 40 42 43 44 45 45 46 47 48 48 49 49 49 49
15 15 18 18 20 19 21 23 23 24 25 26 27 29 29 30 30 31 31 31 32 32 33 34 36 37 38 38 39 40 41 42 43 44 44 45 45 46 46 46 46 46 46 46
16 17 17 17 17 18 19 20 21 22 22 23 24 24 25 25 26 27 28 30 31 31 32 34 35 36 37 38 39 40 41 42 42 42 42 43 43 43 44 44 44 44 44 43
17 17 17 16 16 16 17 18 19 20 20 20 21 21 22 23 24 26 27 29 30 31 33 34 34 35 36 37 38 39 39 39 40 40 40 41 41 41 41 42 42 41 41 40
18 18 17 16 15 15 16 17 17 18 19 18 19 20 20 22 23 25 26 27 28 29 30 31 32 33 34 34 35 36 37 37 38 38 39 39 39 39 39 39 38 37 36 35
18 17 16 15 14 15 15 16 16 17 18 18 19 20 20 22 23 23 24 25 25 26 27 28 29 30 32 33 34 35 36 37 37 37 37 36 36 35 34 33 31 30 28 27
17 16 16 14 14 14 14 15 15 16 17 17 18 19 20 21 21 21 21 21 22 23 25 27 28 30 31 33 34 34 35 34 34 33 32 31 29 28 27 25 23 22 20 19
16 15 14 13 13 12 13 13 14 14 15 16 17 17 18 18 17 18 19 20 21 22 24 26 27 29 30 31 31 30 29 29 28 27 26 24 22 20 18 17 15 14 13 12
15 14 13 12 11 11 11 12 12 13 13 14 14 14 14 15 15 16 17 19 20 22 24 25 26 27 28 27 26 25 24 22 20 19 18 16 14 12 10 9 10 10 9 8
14 13 11 11 10 10 10 10 10 10 10 10 11 11 11 12 13 15 17 18 20 21 22 22 23 24 24 23 21 20 18 15 14 13 11 10 8 8 7 6 6 6 6 7
13 12 10 9 8 8 8 8 8 7 6 6 7 8 9 11 13 14 16 17 18 19 20 20 21 21 21 19 18 16 15 13 12 11 10 9 8 8 8 7 7 7 8 10
12 11 9 8 7 7 7 6 4 4 4 4 6 7 9 11 12 14 15 16 17 17 18 19 19 20 19 18 17 16 15 13 13 12 12 11 11 10 10 10 10 10 11 12
12 10 8 8 7 6 5 4 3 2 2 4 5 7 9 11 12 14 15 16 17 17 17 18 18 19 18 18 17 16 15 14 14 14 13 13 13 13 13 13 13 13 13 14
11 9 8 7 6 5 4 3 2 1 2 4 6 8 9 11 12 14 15 16 17 17 18 18 18 18 17 16 16 15 14 14 14 14 14 14 14 14 14 14 14 14 15 15
10 8 7 6 5 4 3 2 1 1 2 4 6 8 9 11 12 14 16 17 18 18 19 18 17 17 16 16 15 14 14 14 14 14 14 14 14 14 14 14 14 14 14 15
10 8 7 5 4 4 3 2 1 1 2 4 6 8 9 11 12 14 15 17 18 19 19 17 16 16 16 16 14 12 12 12 12 13 13 13 13 13 13 13 13 13 13 13
9 8 7 5 4 4 4 3 2 1 2 3 5 7 9 11 12 14 16 17 18 18 18 18 17 17 16 15 12 10 10 11 11 11 11 11 11 11 11 11 11 10 10 11
9 8 7 6 5 5 4 4 3 1 1 2 4 7 9 11 12 14 16 17 18 18 19 19 19 18 16 14 11 10 9 9 10 10 10 10 10 10 10 10 9 8 8 8
10 9 8 7 6 6 5 5 4 2 1 1 3 5 8 10 11 13 16 17 18 19 19 19 20 20 17 13 11 11 9 8 9 9 9 10 10 10 10 9 8 7 7 7
10 9 9 8 8 7 6 6 5 4 2 1 2 4 7 9 10 12 14 16 18 18 18 19 20 20 19 16 15 12 10 8 8 8 9 9 9 9 9 9 8 7 7 7
11 10 10 9 9 9 8 7 6 6 4 3 2 3 5 7 9 11 13 14 16 16 16 16 17 19 21 21 19 16 13 10 9 9 9 9 9 9 9 9 9 8 8 8
11 11 11 10 10 10 9 8 7 7 6 5 3 2 3 5 8 10 11 13 14 15 16 17 18 19 20 21 21 20 17 15 13 12 11 11 10 10 10 10 10 10 10 10
Wind_Direction
253 261 256 236 222 219 221 223 229 233 238 245 250 255 255 253 250 249 252 256 260 262 264 264 265 266 267 267 268 270 271 273 273 273 274 274 275 277 278 280 282 285 287 290
253 263 265 266 255 245 238 230 230 235 239 244 248 254 254 252 253 254 258 261 263 264 264 265 265 266 267 268 269 270 270 271 272 272 272 273 274 277 279 282 285 288 289 291
255 252 257 260 262 262 262 260 253 248 249 251 255 258 262 263 262 263 265 266 265 265 266 266 266 267 268 268 268 268 269 269 270 271 273 275 278 281 284 287 288 289 290 291
268 255 254 258 261 261 263 263 259 257 256 259 262 267 269 270 270 271 271 270 269 266 264 265 265 264 263 263 264 266 269 273 276 279 280 282 284 285 286 287 288 289 290 291
286 259 260 266 267 263 263 265 263 264 262 263 264 266 270 271 272 272 271 269 268 266 264 265 268 271 273 274 276 280 282 283 286 288 288 288 289 289 289 289 290 290 291 292
298 275 260 270 273 272 267 268 269 269 270 270 269 269 271 272 272 271 270 269 268 268 269 269 273 277 280 283 285 286 288 289 290 291 292 291 291 290 290 290 291 291 292 293
302 288 281 282 280 278 273 272 273 272 271 272 272 271 271 270 268 268 270 271 271 273 277 281 285 287 289 290 291 292 292 293 293 293 292 292 291 291 291 291 292 293 293 293
307 298 293 289 284 279 278 277 278 279 278 278 277 277 277 277 277 279 282 284 286 288 291 293 295 295 294 294 294 294 294 294 294 294 293 293 293 293 293 293 294 294 295 295
309 304 299 294 290 287 284 283 284 285 286 287 289 290 288 289 291 293 293 294 294 295 296 296 297 296 296 296 296 296 296 296 296 296 295 295 295 295 295 295 296 296 296 296
310 308 304 299 294 291 289 291 293 294 294 296 296 297 295 296 297 298 298 299 299 299 300 300 300 300 300 300 300 300 299 298 298 298 298 297 297 297 297 297 297 297 297 297
311 311 308 306 300 296 295 295 296 297 297 299 301 301 301 302 302 303 303 304 304 304 304 305 305 306 305 305 304 303 302 301 300 299 299 299 299 299 300 300 300 300 299 299
313 310 308 308 303 300 300 301 300 299 301 303 305 306 307 308 308 308 308 309 310 310 310 310 310 310 309 308 307 305 304 302 301 301 300 300 300 300 301 302 304 304 305 306
311 309 307 305 302 301 303 303 302 301 302 304 307 309 309 311 313 314 316 317 318 318 318 318 317 316 315 314 312 311 309 307 306 305 305 304 303 303 305 307 311 315 319 322
312 310 307 303 301 303 304 303 300 300 302 304 306 309 313 316 319 322 324 326 327 327 326 326 325 325 324 324 322 320 318 316 315 315 315 316 317 318 319 319 324 332 340 353
314 311 307 302 300 304 305 303 301 301 302 305 309 315 321 327 331 332 333 334 335 335 335 336 336 337 338 338 338 337 337 337 337 338 340 343 346 348 352 356 360 7 21 43
315 311 307 302 300 304 309 308 307 307 310 316 325 333 339 341 342 343 343 343 344 346 348 349 351 352 355 356 357 359 0 3 6 8 13 18 23 27 32 37 42 50 63 75
315 312 306 301 302 305 312 313 311 315 326 340 349 354 354 353 353 353 353 354 355 356 357 359 1 3 5 8 11 14 18 23 27 32 37 41 44 47 51 56 64 72 78 82
313 310 306 300 299 306 312 316 319 335 1 11 13 10 8 6 4 4 5 5 5 5 5 7 9 11 13 15 19 24 29 35 40 44 48 51 54 58 63 68 72 76 78 81
310 305 303 297 297 300 298 301 310 4 41 35 26 20 16 12 11 12 13 13 13 15 16 16 16 16 18 21 25 29 37 45 49 53 56 59 62 64 67 70 73 76 78 80
305 297 295 291 288 287 281 274 261 95 57 39 29 22 18 16 17 17 16 15 17 18 18 17 17 19 23 26 30 36 45 51 55 57 60 62 63 65 67 69 72 75 77 80
302 290 284 278 273 268 257 241 205 115 60 41 31 25 21 19 19 17 16 16 17 18 16 14 16 20 23 25 28 37 48 55 57 57 58 59 60 61 64 66 70 74 77 80
297 283 272 265 255 245 237 222 199 142 67 42 32 26 22 20 19 18 17 18 17 18 16 17 18 21 23 22 25 40 53 56 56 55 55 55 56 56 58 61 65 71 76 79
289 274 262 252 240 232 227 217 204 175 73 34 26 23 21 19 19 19 19 18 18 17 17 18 19 21 22 20 29 46 56 57 55 53 53 52 51 51 52 56 62 70 76 81
281 265 254 243 233 228 224 219 213 209 228 358 14 17 18 16 16 18 20 20 19 19 18 20 22 24 22 24 38 48 54 57 55 52 50 47 46 46 48 52 59 67 78 85
272 257 245 236 229 227 227 225 224 225 238 276 346 10 14 14 14 16 19 20 21 21 22 25 29 30 31 37 41 43 48 54 54 50 46 44 43 44 46 51 58 67 79 88
263 250 239 232 228 228 229 231 231 232 239 255 293 351 9 13 14 15 18 20 22 23 26 30 35 37 39 41 42 43 49 55 54 49 46 45 45 47 50 55 62 71 82 90
256 246 237 230 227 228 230 231 233 234 238 246 261 300 350 7 12 15 19 22 24 27 30 34 38 40 42 43 43 45 50 55 56 54 52 53 55 57 61 66 71 77 84 89
Height
5748 5748 5749 5751 5754 5755 5757 5760 5762 5763 5763 5763 5763 5762 5761 5762 5762 5764 5766 5767 5768 5768 5768 5767 5767 5766 5766 5765 5763 5762 5761 5759 5757 5754 5752 5749 5747 5744 5741 5738 5735 5731 5728 5725
5746 5747 5748 5749 5749 5750 5749 5750 5752 5754 5755 5755 5755 5754 5752 5753 5754 5756 5757 5758 5758 5758 5757 5756 5755 5754 5753 5752 5751 5749 5747 5745 5743 5741 5738 5736 5733 5730 5727 5725 5722 5719 5715 5712
5743 5744 5744 5745 5743 5744 5745 5745 5746 5746 5746 5745 5746 5744 5743 5744 5746 5746 5748 5748 5748 5747 5746 5745 5744 5742 5741 5739 5737 5736 5734 5732 5730 5727 5725 5722 5720 5717 5714 5712 5709 5705 5702 5699
5739 5740 5741 5740 5738 5739 5739 5738 5739 5739 5738 5738 5737 5736 5736 5737 5738 5738 5739 5739 5738 5737 5735 5734 5732 5729 5728 5726 5724 5722 5720 5719 5716 5714 5712 5709 5707 5704 5702 5699 5696 5693 5689 5686
5735 5735 5734 5732 5732 5732 5733 5732 5732 5731 5731 5730 5730 5730 5730 5730 5730 5730 5729 5729 5728 5726 5724 5722 5720 5718 5716 5715 5713 5710 5708 5706 5704 5702 5699 5697 5694 5692 5689 5686 5682 5679 5675 5672
5731 5730 5729 5728 5726 5726 5727 5725 5725 5724 5723 5723 5723 5723 5723 5722 5722 5721 5720 5719 5718 5716 5714 5712 5710 5708 5707 5705 5702 5700 5698 5695 5693 5690 5687 5684 5682 5679 5675 5672 5669 5665 5662 5658
5727 5726 5724 5723 5722 5722 5722 5721 5719 5717 5717 5716 5716 5716 5716 5715 5714 5713 5712 5711 5709 5708 5705 5703 5701 5699 5697 5695 5692 5690 5687 5684 5681 5678 5675 5672 5669 5666 5662 5659 5655 5652 5649 5646
5723 5722 5721 5718 5717 5717 5716 5714 5713 5712 5711 5711 5710 5709 5708 5707 5707 5706 5705 5704 5702 5700 5697 5695 5693 5690 5688 5685 5682 5679 5676 5672 5669 5666 5663 5660 5656 5653 5649 5646 5643 5639 5636 5632
5720 5719 5716 5714 5713 5712 5710 5709 5708 5708 5707 5706 5705 5704 5703 5702 5701 5700 5699 5697 5695 5692 5690 5687 5684 5681 5678 5675 5671 5668 5664 5661 5657 5654 5650 5647 5644 5640 5637 5634 5631 5627 5624 5621
5716 5713 5711 5710 5709 5707 5706 5705 5704 5703 5703 5702 5701 5700 5698 5697 5696 5694 5692 5690 5687 5685 5682 5679 5676 5672 5669 5665 5661 5658 5654 5651 5647 5643 5639 5636 5632 5629 5626 5622 5619 5616 5613 5610
5713 5710 5708 5707 5705 5704 5703 5701 5700 5699 5698 5697 5696 5695 5694 5692 5691 5688 5686 5684 5681 5678 5675 5672 5669 5665 5661 5657 5653 5648 5644 5640 5637 5633 5629 5625 5622 5619 5616 5612 5609 5607 5604 5601
5710 5708 5706 5704 5702 5701 5699 5698 5697 5696 5695 5693 5692 5691 5689 5687 5686 5683 5681 5679 5676 5673 5670 5666 5663 5659 5654 5650 5645 5640 5635 5631 5627 5623 5620 5617 5614 5610 5607 5605 5602 5600 5597 5595
5707 5705 5703 5701 5700 5698 5697 5696 5694 5693 5692 5691 5689 5688 5686 5684 5682 5680 5678 5675 5672 5669 5665 5661 5657 5653 5648 5643 5637 5632 5627 5623 5619 5615 5612 5609 5607 5604 5602 5600 5598 5596 5594 5591
5704 5702 5701 5699 5698 5696 5695 5694 5692 5691 5690 5689 5687 5686 5684 5682 5680 5678 5675 5672 5669 5665 5661 5657 5652 5647 5642 5636 5631 5626 5621 5617 5613 5610 5607 5604 5602 5601 5599 5597 5596 5594 5592 5590
5702 5700 5699 5697 5696 5695 5693 5692 5691 5689 5688 5687 5686 5684 5683 5681 5679 5676 5673 5670 5667 5663 5659 5654 5649 5644 5638 5633 5627 5622 5617 5613 5610 5607 5605 5603 5601 5599 5598 5597 5595 5594 5593 5592
5699 5698 5697 5695 5694 5693 5692 5691 5690 5688 5687 5686 5685 5684 5682 5680 5678 5675 5672 5669 5666 5662 5657 5652 5647 5642 5637 5632 5627 5622 5618 5614 5610 5608 5605 5603 5602 5600 5599 5598 5597 5596 5595 5594
5698 5696 5695 5694 5693 5692 5691 5690 5689 5688 5687 5686 5685 5684 5682 5680 5678 5675 5672 5669 5665 5661 5657 5652 5647 5642 5637 5633 5628 5624 5619 5616 5613 5610 5608 5606 5604 5603 5601 5600 5599 5599 5598 5598
5696 5695 5694 5693 5692 5691 5691 5690 5689 5688 5687 5687 5686 5684 5683 5681 5678 5676 5672 5669 5665 5661 5657 5653 5648 5643 5639 5634 5630 5626 5622 5619 5616 5614 5611 5610 5608 5607 5605 5604 5604 5603 5603 5603
5694 5693 5693 5692 5691 5691 5690 5690 5689 5689 5688 5687 5686 5685 5683 5681 5679 5676 5673 5670 5666 5662 5658 5654 5650 5646 5641 5637 5633 5629 5626 5623 5620 5618 5616 5615 5613 5612 5611 5610 5609 5608 5608 5608
5693 5692 5691 5691 5691 5691 5690 5690 5690 5689 5689 5688 5687 5686 5684 5682 5680 5677 5674 5671 5667 5663 5659 5656 5652 5648 5644 5640 5636 5633 5630 5628 5625 5623 5622 5620 5618 5617 5616 5615 5614 5614 5613 5613
5691 5691 5690 5690 5690 5690 5691 5690 5690 5690 5689 5689 5688 5687 5685 5683 5681 5678 5675 5672 5669 5665 5661 5658 5654 5650 5645 5642 5639 5636 5634 5632 5630 5628 5626 5625 5623 5622 5621 5620 5619 5618 5618 5618
5690 5689 5690 5690 5690 5690 5690 5691 5690 5690 5690 5689 5689 5688 5686 5685 5682 5680 5677 5674 5670 5667 5663 5659 5655 5651 5647 5644 5641 5639 5637 5635 5634 5632 5630 5629 5627 5626 5625 5624 5623 5622 5622 5622
5688 5688 5688 5689 5689 5690 5690 5691 5691 5691 5690 5690 5690 5689 5688 5686 5684 5681 5678 5675 5672 5668 5665 5661 5657 5652 5649 5646 5643 5640 5639 5638 5637 5635 5634 5632 5631 5630 5628 5627 5626 5626 5626 5625
5686 5687 5687 5688 5688 5689 5690 5690 5691 5691 5691 5691 5690 5690 5689 5687 5685 5683 5680 5677 5674 5670 5667 5663 5659 5654 5651 5648 5645 5643 5641 5640 5639 5638 5637 5635 5634 5633 5631 5630 5629 5629 5628 5628
5684 5685 5686 5686 5687 5688 5689 5690 5690 5691 5691 5691 5691 5690 5690 5688 5687 5685 5682 5679 5676 5673 5670 5666 5662 5658 5655 5650 5647 5645 5644 5643 5642 5641 5639 5638 5637 5635 5634 5633 5632 5632 5631 5631
5682 5683 5684 5685 5686 5687 5688 5689 5690 5690 5691 5691 5691 5691 5690 5689 5688 5686 5684 5682 5679 5676 5673 5669 5666 5662 5658 5655 5652 5649 5647 5646 5644 5643 5642 5641 5639 5638 5637 5636 5635 5635 5634 5634
5680 5681 5682 5683 5684 5686 5687 5688 5689 5690 5691 5691 5691 5691 5691 5690 5689 5688 5686 5684 5681 5679 5675 5672 5669 5666 5663 5660 5658 5655 5652 5650 5648 5647 5645 5644 5642 5641 5640 5639 5639 5638 5638 5638